This is the latest recevied weather packets stored in our database for station/object F5MAP-5. If no packets are shown the sender has not sent any weather packets the latest 10 day(s).
| Time | Temp. | Humidity | Pressure | Rain* | Wind** | Luminosity | Snow |
|---|---|---|---|---|---|---|---|
| 1787651533 | 18.33° C | 92% | 1012.9 hPa | 0 mm | - | 281 W/m² | - |
| 1787650933 | 18.33° C | 93% | 1012.9 hPa | 0 mm | - | 186 W/m² | - |
| 1787650333 | 18.33° C | 93% | 1012.9 hPa | 0 mm | - | 239 W/m² | - |
| 1787649733 | 18.33° C | 93% | 1013 hPa | 0 mm | - | 132 W/m² | - |
| 1787649133 | 17.78° C | 93% | 1012.8 hPa | 0 mm | - | 162 W/m² | - |
| 1787648534 | 17.78° C | 93% | 1012.8 hPa | 0 mm | - | 309 W/m² | - |
| 1787647933 | 17.22° C | 94% | 1012.7 hPa | 0 mm | - | 269 W/m² | - |
| 1787647333 | 17.22° C | 94% | 1012.8 hPa | 0 mm | - | 221 W/m² | - |
| 1787646733 | 17.22° C | 94% | 1012.8 hPa | 0 mm | - | 309 W/m² | - |
| 1787646133 | 17.22° C | 94% | 1012.7 hPa | 0 mm | - | 165 W/m² | - |
| 1787645534 | 17.22° C | 94% | 1012.7 hPa | 0 mm | - | 179 W/m² | - |
| 1787644933 | 16.67° C | 94% | 1012.6 hPa | 0 mm | - | 114 W/m² | - |
| 1787644333 | 16.67° C | 94% | 1012.6 hPa | 0 mm | - | 204 W/m² | - |
| 1787643733 | 16.67° C | 94% | 1012.6 hPa | 0 mm | - | 343 W/m² | - |
| 1787643133 | 16.11° C | 94% | 1012.6 hPa | 0 mm | - | 197 W/m² | - |
| 1787642533 | 16.11° C | 94% | 1012.5 hPa | 0 mm | - | 165 W/m² | - |
| 1787641933 | 16.11° C | 94% | 1012.5 hPa | 0 mm | - | 142 W/m² | - |
| 1787641333 | 16.11° C | 94% | 1012.5 hPa | 0.25 mm | - | 98 W/m² | - |
| 1787640733 | 16.11° C | 93% | 1012.4 hPa | 0.25 mm | - | 70 W/m² | - |
| 1787640134 | 15.56° C | 93% | 1012.4 hPa | 0.25 mm | - | 84 W/m² | - |
| 1787639533 | 15.56° C | 93% | 1012.3 hPa | 0.51 mm | - | 49 W/m² | - |
| 1787638933 | 15.56° C | 93% | 1012.2 hPa | 0.25 mm | - | 37 W/m² | - |
| 1787638333 | 15.56° C | 93% | 1012.2 hPa | 0.51 mm | - | 21 W/m² | - |
| 1787637733 | 15.56° C | 93% | 1012.1 hPa | 0.25 mm | - | 21 W/m² | - |
| 1787637133 | 15.56° C | 93% | 1012 hPa | 0.25 mm | - | 16 W/m² | - |
* Rain latest hour (hover to see other rain measurements)
** Current wind speed in m/s (hover to see current wind gust speed)